Regional Weather Roundup
Issued by NWS

Home | Current Version | Previous Version | Text Only | Print | Product List | Glossary On
Versions: 1 2 3 4 5 6 7 8 9 10 11 12 13 14 15 16 17 18 19 20 21 22 23 24 25 26 27 28 29 30 31 32 33 34 35 36 37 38 39 40 41 42 43 44 45 46 47 48 49 50
000
ASUS43 KTOP 292159
RWRKS

WEATHER ROUNDUP FOR KANSAS
NATIONAL WEATHER SERVICE GOODLAND KS
500 PM CDT FRI AUG 29 2014

NOTE:  "FAIR" INDICATES FEW OR NO CLOUDS BELOW 12,000 FEET WITH NO
SIGNIFICANT WEATHER AND/OR OBSTRUCTIONS TO VISIBILITY.

KSZ001>006-013>018-027>032-041>047-292300-
NORTHWEST KANSAS

CITY           SKY/WX    TMP DP  RH WIND       PRES   REMARKS
GOODLAND       SUNNY     84  44  24 N14G23    29.97R
HAYS           MOSUNNY   84  57  39 N9        29.85S
HILL CITY      SUNNY     86  52  30 N10G18    29.87R
RUSSELL        MOSUNNY   86  61  42 W8        29.82F
$$

KSZ061>065-074>080-084>089-292300-
SOUTHWEST KANSAS

CITY           SKY/WX    TMP DP  RH WIND       PRES   REMARKS
DODGE CITY     SUNNY     86  50  28 N15G21    29.89F
ELKHART          N/A     88  46  23 NW12        N/A
GARDEN CITY    SUNNY     85  50  29 N9        29.90F
GREAT BEND     SUNNY     86  54  32 W6        29.83F
LIBERAL        SUNNY     88  48  25 NE7       29.92F
$$

KSZ066>073-081>083-090>101-292300-
SOUTHEAST KANSAS

CITY           SKY/WX    TMP DP  RH WIND       PRES   REMARKS
CHANUTE        PTSUNNY   88  62  41 SW12G22   29.83F
COFFEYVILLE    PTSUNNY   88  63  43 SW9       29.83F
HUTCHINSON     MOSUNNY   79  64  60 S16       29.84S
NEWTON         PTSUNNY   82  63  51 SW13      29.87S
PARSONS        PTSUNNY   87  63  44 S9        29.85S
WICHITA INTL   PTSUNNY   85  65  51 SW15G22   29.83S
WICHITA JABRA  MOSUNNY   82  65  56 SW14      29.83F
WINFIELD       PTSUNNY   81  69  67 S17       29.87R
$$

KSZ007>012-019>026-033>040-048>060-102>105-292300-
NORTHEAST KANSAS

CITY           SKY/WX    TMP DP  RH WIND       PRES   REMARKS
EMPORIA        MOSUNNY   89  62  40 SW13G24   29.80F
LAWRENCE       MOSUNNY   91  64  40 SW13G26   29.79S
MANHATTAN      SUNNY     89  63  41 SW7       29.78F
OLATHE IND     MOSUNNY   86  65  49 S12       29.82F
OLATHE EXE     MOSUNNY   83  67  58 S10       29.82S
SALINA         SUNNY     88  58  36 W13       29.81S
TOPEKA BILLARD MOSUNNY   89  66  46 S13       29.77F
TOPEKA FORBES  MOSUNNY   89  63  41 SW15G23   29.77F
$$


USA.gov is the U.S. government's official web portal to all federal, state and local government web resources and services.